Location: Saratoga Springs
(43.0831°N, 73.7850°W)
Time: 01:37:11
(UTC-04:00)

Vanguard 1 Rocket - Pass Details

Date: 19 April 2024
Orbit: 651 x 4220 km, 34.3° (Epoch: 17 May)

Event Time Altitude Azimuth Distance (km) Brightness Sun altitude
Rises 23:01:06 0° 266° (W) 3,817 10.9 -29.5°
Reaches altitude 10° 23:03:22 10° 259° (WSW) 3,133 10.3 -29.7°
Enters shadow 23:10:17 44° 196° (SSW) 2,258 9.0 -30.3°
Maximum altitude 23:10:49 44° 189° (S) 2,303 - -30.4°
Drops below altitude 10° 23:24:41 10° 125° (SE) 5,710 - -31.6°
Sets 23:30:35 0° 120° (ESE) 7,290 - -32.0°
